Previsão horária em Aalen

Hoje, 10 Abril, Sábado

Tempo Temperatura Precipitação Vento Pressão Humidade
00:00 +5°C° 0 mm 2 m/s 719 mmHg 84%
01:00 +5°C° 0 mm 2 m/s 719 mmHg 83%
02:00 +5°C° 0 mm 3 m/s 718 mmHg 80%
03:00 +5°C° 0 mm 3 m/s 718 mmHg 77%
04:00 +5°C° 0 mm 4 m/s 718 mmHg 75%
05:00 +5°C° 0.2 mm 4 m/s 718 mmHg 78%
06:00 +5°C° 0.2 mm 5 m/s 719 mmHg 82%
07:00 +5°C° 0 mm 5 m/s 719 mmHg 85%
08:00 +6°C° 0.6 mm 4 m/s 719 mmHg 86%
09:00 +6°C° 0.6 mm 4 m/s 719 mmHg 88%
10:00 +6°C° 0.6 mm 4 m/s 720 mmHg 89%
11:00 +8°C° 0.1 mm 3 m/s 720 mmHg 87%
12:00 +9°C° 0.1 mm 3 m/s 720 mmHg 84%
13:00 +10°C° 0.1 mm 2 m/s 719 mmHg 81%
14:00 +12°C° 0.1 mm 2 m/s 719 mmHg 78%
15:00 +12°C° 0.1 mm 2 m/s 719 mmHg 74%
16:00 +13°C° 0.1 mm 1 m/s 718 mmHg 71%
17:00 +12°C° 0 mm 1 m/s 718 mmHg 75%
18:00 +10°C° 0 mm 2 m/s 718 mmHg 80%
19:00 +9°C° 0 mm 2 m/s 717 mmHg 84%
20:00 +8°C° 0 mm 2 m/s 717 mmHg 85%
21:00 +7°C° 0 mm 2 m/s 717 mmHg 86%
22:00 +7°C° 0 mm 2 m/s 717 mmHg 87%
23:00 +7°C° 0 mm 2 m/s 717 mmHg 88%

Amanhã, 11 Abril, Domingo

Tempo Temperatura Precipitação Vento Pressão Humidade
00:00 +7°C° 0 mm 2 m/s 717 mmHg 89%
01:00 +6°C° 0 mm 2 m/s 717 mmHg 90%
02:00 +6°C° 0 mm 2 m/s 717 mmHg 89%
03:00 +7°C° 0 mm 1 m/s 716 mmHg 88%
04:00 +7°C° 0 mm 1 m/s 716 mmHg 87%
05:00 +8°C° 0 mm 1 m/s 716 mmHg 84%
06:00 +8°C° 0 mm 1 m/s 716 mmHg 81%
07:00 +9°C° 0 mm 1 m/s 716 mmHg 78%
08:00 +11°C° 0 mm 1 m/s 716 mmHg 72%
09:00 +13°C° 0 mm 2 m/s 716 mmHg 67%
10:00 +14°C° 0 mm 2 m/s 716 mmHg 61%
11:00 +15°C° 0 mm 2 m/s 716 mmHg 58%
12:00 +16°C° 0 mm 2 m/s 716 mmHg 56%
13:00 +17°C° 0 mm 2 m/s 716 mmHg 54%
14:00 +17°C° 0 mm 2 m/s 716 mmHg 54%
15:00 +17°C° 0 mm 3 m/s 716 mmHg 54%
16:00 +17°C° 0 mm 3 m/s 716 mmHg 54%
17:00 +14°C° 0.1 mm 3 m/s 716 mmHg 65%
18:00 +12°C° 0.1 mm 3 m/s 716 mmHg 77%
19:00 +10°C° 0.1 mm 4 m/s 717 mmHg 89%
20:00 +9°C° 0 mm 3 m/s 717 mmHg 91%
21:00 +8°C° 0 mm 3 m/s 718 mmHg 94%
22:00 +8°C° 0 mm 2 m/s 718 mmHg 96%
23:00 +7°C° 0.7 mm 2 m/s 718 mmHg 96%

Depois de amanhã, 12 Abril, Segunda-feira

Tempo Temperatura Precipitação Vento Pressão Humidade
00:00 +7°C° 0.7 mm 3 m/s 718 mmHg 96%
01:00 +7°C° 0.7 mm 3 m/s 719 mmHg 96%
02:00 +5°C° 0.7 mm 3 m/s 719 mmHg 96%
03:00 +4°C° 0.7 mm 4 m/s 719 mmHg 96%
04:00 +3°C° 0.7 mm 4 m/s 720 mmHg 96%
05:00 +1°C° 1.1 mm 4 m/s 720 mmHg 97%
06:00 +1°C° 1.1 mm 3 m/s 721 mmHg 98%
07:00 +1°C° 1.1 mm 3 m/s 721 mmHg 99%
08:00 +1°C° 0.6 mm 3 m/s 722 mmHg 99%
09:00 0°C° 0.6 mm 4 m/s 722 mmHg 99%
10:00 0°C° 0.6 mm 4 m/s 723 mmHg 99%
11:00 0°C° 0.4 mm 4 m/s 723 mmHg 99%
12:00 +1°C° 0.4 mm 3 m/s 723 mmHg 99%
13:00 +1°C° 0.4 mm 3 m/s 724 mmHg 99%
14:00 +1°C° 0.4 mm 3 m/s 724 mmHg 98%
15:00 +1°C° 0.4 mm 3 m/s 724 mmHg 98%
16:00 +1°C° 0.4 mm 3 m/s 724 mmHg 97%
17:00 +1°C° 0.2 mm 3 m/s 725 mmHg 95%
18:00 +2°C° 0.2 mm 2 m/s 726 mmHg 93%
19:00 +2°C° 0.2 mm 2 m/s 726 mmHg 91%
20:00 +2°C° 0 mm 1 m/s 726 mmHg 91%
21:00 +2°C° 0 mm 1 m/s 727 mmHg 92%
22:00 0°C° 0 mm 0 m/s 727 mmHg 92%
23:00 0°C° 0 mm 0 m/s 727 mmHg 92%

13 Abril, Terça-feira

Tempo Temperatura Precipitação Vento Pressão Humidade
00:00 0°C° 0 mm 0 m/s 727 mmHg 93%
01:00 0°C° 0 mm 0 m/s 727 mmHg 93%
02:00 0°C° 0 mm 0 m/s 727 mmHg 93%
03:00 0°C° 0 mm 1 m/s 727 mmHg 93%
04:00 0°C° 0 mm 1 m/s 727 mmHg 93%
05:00 0°C° 0 mm 1 m/s 728 mmHg 92%
06:00 +1°C° 0 mm 1 m/s 728 mmHg 90%
07:00 +1°C° 0 mm 1 m/s 728 mmHg 89%
08:00 +2°C° 0.2 mm 1 m/s 728 mmHg 84%
09:00 +2°C° 0.2 mm 2 m/s 728 mmHg 80%
10:00 +3°C° 0.2 mm 2 m/s 728 mmHg 75%
11:00 +3°C° 0.4 mm 3 m/s 728 mmHg 72%
12:00 +3°C° 0.4 mm 3 m/s 728 mmHg 70%
13:00 +4°C° 0.4 mm 3 m/s 728 mmHg 68%
14:00 +4°C° 0.2 mm 3 m/s 728 mmHg 64%
15:00 +4°C° 0.2 mm 3 m/s 728 mmHg 61%
16:00 +4°C° 0.2 mm 3 m/s 727 mmHg 57%
17:00 +4°C° 0 mm 2 m/s 727 mmHg 62%
18:00 +2°C° 0 mm 2 m/s 727 mmHg 66%
19:00 +2°C° 0 mm 1 m/s 727 mmHg 71%
20:00 +1°C° 0 mm 1 m/s 728 mmHg 72%
21:00 +1°C° 0 mm 1 m/s 728 mmHg 74%
22:00 -1°C° 0 mm 0 m/s 728 mmHg 75%
23:00 -1°C° 0 mm 0 m/s 728 mmHg 76%

14 Abril, Quarta-feira

Tempo Temperatura Precipitação Vento Pressão Humidade
00:00 0°C° 0 mm 1 m/s 728 mmHg 77%
01:00 0°C° 0 mm 1 m/s 728 mmHg 78%
02:00 -1°C° 0 mm 1 m/s 728 mmHg 79%
03:00 -1°C° 0 mm 1 m/s 728 mmHg 81%
04:00 -1°C° 0 mm 1 m/s 728 mmHg 82%
05:00 0°C° 0 mm 1 m/s 728 mmHg 81%
06:00 0°C° 0 mm 1 m/s 728 mmHg 79%
07:00 +1°C° 0 mm 1 m/s 728 mmHg 77%
08:00 +2°C° 0.1 mm 1 m/s 728 mmHg 73%
09:00 +3°C° 0.1 mm 2 m/s 728 mmHg 69%
10:00 +3°C° 0.1 mm 3 m/s 728 mmHg 65%
11:00 +4°C° 0.2 mm 3 m/s 728 mmHg 61%
12:00 +4°C° 0.2 mm 3 m/s 728 mmHg 56%
13:00 +5°C° 0.2 mm 4 m/s 727 mmHg 52%
14:00 +5°C° 0.1 mm 4 m/s 727 mmHg 52%
15:00 +5°C° 0.1 mm 4 m/s 727 mmHg 52%
16:00 +5°C° 0.1 mm 4 m/s 727 mmHg 52%
17:00 +3°C° 0 mm 3 m/s 727 mmHg 59%
18:00 +3°C° 0 mm 2 m/s 727 mmHg 66%
19:00 +2°C° 0 mm 1 m/s 727 mmHg 72%
20:00 +2°C° 0 mm 1 m/s 727 mmHg 73%
21:00 +1°C° 0 mm 1 m/s 727 mmHg 74%
22:00 0°C° 0 mm 1 m/s 727 mmHg 76%
23:00 0°C° 0 mm 1 m/s 727 mmHg 77%

15 Abril, Quinta-feira

Tempo Temperatura Precipitação Vento Pressão Humidade
00:00 0°C° 0 mm 1 m/s 727 mmHg 78%
01:00 -1°C° 0 mm 1 m/s 727 mmHg 80%
02:00 -2°C° 0 mm 0 m/s 727 mmHg 81%
03:00 -2°C° 0 mm 0 m/s 727 mmHg 81%
04:00 -2°C° 0 mm 0 m/s 727 mmHg 82%
05:00 0°C° 0 mm 1 m/s 727 mmHg 80%
06:00 +1°C° 0 mm 1 m/s 728 mmHg 78%
07:00 +1°C° 0 mm 1 m/s 728 mmHg 75%
08:00 +3°C° 0.1 mm 1 m/s 728 mmHg 71%
09:00 +3°C° 0.1 mm 2 m/s 728 mmHg 66%
10:00 +5°C° 0.1 mm 2 m/s 728 mmHg 62%
11:00 +4°C° 0.3 mm 3 m/s 728 mmHg 59%
12:00 +5°C° 0.3 mm 3 m/s 728 mmHg 56%
13:00 +7°C° 0.3 mm 3 m/s 727 mmHg 53%
14:00 +6°C° 0.2 mm 4 m/s 727 mmHg 55%
15:00 +5°C° 0.2 mm 4 m/s 727 mmHg 56%
16:00 +5°C° 0.2 mm 4 m/s 727 mmHg 58%
17:00 +4°C° 0.1 mm 3 m/s 727 mmHg 63%
18:00 +3°C° 0.1 mm 3 m/s 727 mmHg 68%
19:00 +2°C° 0.1 mm 2 m/s 727 mmHg 74%
20:00 +1°C° 0 mm 2 m/s 728 mmHg 75%
21:00 -1°C° 0 mm 2 m/s 728 mmHg 77%
22:00 -2°C° 0 mm 2 m/s 728 mmHg 78%
23:00 -2°C° 0 mm 2 m/s 728 mmHg 80%
Mostrar mais